Location: Penticton
(49.5000°N, 119.5830°W)
Time: 17:13:04
(UTC-07:00)

Daily predictions for brighter satellites

Satellite Brightness Start Highest point End
(mag) Time Altitude Azimuth Time Altitude Azimuth Time Altitude Azimuth
Cosmos 1725 Rocket 4.3 21:40:45 10° N 21:46:55 54° ENE 21:52:59 10° SSE
Cosmos 1802 Rocket 4.0 21:42:11 10° N 21:48:22 87° E 21:54:31 10° S
EO 1 Delta rocket 4.2 21:47:03 10° SSE 21:51:31 50° ENE 21:56:07 10° N
Cosmos 1674 2.9 21:52:09 10° SSW 21:55:55 75° WNW 21:59:41 10° N
Cosmos 1603 3.9 21:52:20 10° NNW 21:58:02 77° WSW 22:03:38 10° SSE
CZ-3B DEB 4.4 21:47:56 10° W 21:58:20 71° N 22:11:27 10° ENE
Cosmos 1455 4.2 21:56:36 10° NNE 21:59:13 17° ENE 22:01:47 10° ESE
Cosmos 371 Rocket 3.3 21:54:29 10° NNW 21:59:20 76° ENE 22:04:09 10° SSE
Cosmos 1814 Rocket 4.1 21:54:03 10° NNW 21:59:27 79° ENE 22:04:45 10° SSE
Cosmos 1908 4.4 21:57:02 10° NNW 22:00:43 41° W 22:04:22 10° SSW
Abrixas rocket 3.0 22:05:25 10° W 22:08:26 36° SSW 22:11:18 11° SE
Cosmos 2227 Rocket 4.3 22:03:44 10° WSW 22:08:47 32° NW 22:13:51 10° NNE
Lacrosse 5 2.5 22:03:59 10° WNW 22:08:50 46° SW 22:13:38 10° SSE
Cosmos 841 Rocket 3.7 22:03:38 10° NNW 22:08:52 62° ENE 22:13:59 10° SE
Cosmos 1242 Rocket 4.2 22:06:41 10° NNW 22:10:03 32° W 22:13:22 10° SSW
Cosmos 1763 Rocket 3.5 22:05:17 10° NNW 22:10:27 78° ENE 22:15:30 10° SSE
CARTOSAT-1 4.4 22:06:42 10° SE 22:10:42 39° ENE 22:14:43 10° N
SPOT 5 3.1 22:06:28 10° S 22:11:21 77° WSW 22:16:33 10° NNW
ARGOS 3.4 22:07:00 10° S 22:12:25 72° WSW 22:17:51 10° NNW
Cosmos 1943 3.3 22:07:22 10° NNW 22:13:03 76° ENE 22:18:35 11° SSE
KORONAS-FOTON 4.1 22:09:47 10° SSW 22:13:34 70° WNW 22:17:22 10° N
SL-16 R/B 4.1 22:09:51 10° NW 22:14:15 24° WSW 22:18:38 10° SSW
Cosmos 2016 Rocket 4.2 22:08:16 10° NNW 22:14:33 74° W 22:20:42 10° S
Cosmos 1766 Rocket 3.7 22:12:11 10° SSW 22:16:30 75° W 22:20:53 10° N
Cosmos 1328 Rocket 3.5 22:13:02 10° N 22:17:25 89° W 22:21:44 10° S
SPOT 1/Viking Rocket 3.6 22:16:13 10° SSE 22:21:22 84° WSW 22:26:34 10° NNW
Cosmos 1151 Rocket 3.2 22:19:05 10° N 22:23:27 62° ENE 22:27:26 12° SSE
Cosmos 1515 Rocket 3.5 22:19:09 10° N 22:23:31 78° E 22:27:42 11° SSE
USA 245 4.2 22:22:48 10° S 22:26:17 49° W 22:30:40 10° NNW
Cosmos 2084 4.0 22:24:33 10° WSW 22:28:25 55° NW 22:32:10 10° NE
IGS 5A 3.8 22:24:55 13° SE 22:28:33 53° ENE 22:32:37 10° N
CZ-3A R/B 0.1 22:28:26 10° NW 22:29:25 28° NNE 22:30:01 18° ENE
Landsat 7 3.8 22:26:21 11° SSE 22:30:56 84° ENE 22:35:44 10° NNW
H-2A R/B 2.5 22:28:08 13° SE 22:31:47 48° ENE 22:35:52 10° N
Cosmos 2228 Rocket 3.4 22:27:47 10° NNW 22:32:22 71° W 22:36:55 10° S
Cosmos 1743 Rocket 3.5 22:28:14 10° S 22:32:33 77° E 22:36:54 10° NNE
Cosmos 1703 4.0 22:33:10 14° SSE 22:36:12 37° E 22:39:54 10° NNE
Cosmos 2233 Rocket 4.0 22:32:36 10° N 22:38:53 80° E 22:44:36 12° SSE
Cosmos 1867 4.2 22:34:57 10° SW 22:40:21 61° NW 22:45:48 10° NE
Terra 1.8 22:41:47 14° SSE 22:45:52 83° ENE 22:50:40 10° NNW
USA 234 3.3 22:41:30 10° ENE 22:47:58 58° SE 22:54:24 10° SW
Meteor 2-12 Rocket 4.4 22:46:47 10° N 22:52:54 87° E 22:58:08 14° S
SME Rocket 3.9 22:51:07 16° SE 22:54:06 43° ENE 22:58:56 10° N
Meteor 1-11 4.3 22:48:45 10° S 22:54:34 81° E 23:00:25 10° NNE
Cosmos 1626 2.2 22:53:53 16° S 22:56:43 63° E 23:00:25 10° NNE
Cosmos 1726 4.2 22:54:14 10° NW 22:57:10 22° W 23:00:03 10° SW
Cosmos 1503 Rocket 4.3 22:52:52 13° S 22:57:14 47° ESE 23:02:11 10° NNE
Cosmos 220 Rocket 4.4 22:55:09 10° SSW 22:59:33 69° WNW 23:03:55 10° NNE
Cosmos 304 Rocket 3.8 22:55:32 10° NNW 23:00:22 89° W 23:03:52 19° SSE
Cosmos 2058 2.9 22:57:17 13° S 23:01:01 84° ESE 23:05:17 10° N
H-2A R/B 3.2 23:00:45 10° SSW 23:05:45 40° W 23:10:52 10° NNW
CZ-4B R/B 4.0 23:02:42 10° NNE 23:07:48 46° E 23:11:22 18° SSE
Cosmos 540 Rocket 3.5 23:04:22 10° NNW 23:09:33 87° WSW 23:13:14 20° SSE
ERBS 4.4 23:09:38 10° W 23:11:44 16° SW 23:13:03 13° SSW
PSLV R/B 2.9 23:12:34 27° S 23:13:57 80° WSW 23:16:49 10° NNW
Sich 1 3.8 23:13:50 21° SE 23:16:04 35° E 23:19:58 10° NNE
Tiangong 1 3.1 23:14:52 10° SW 23:15:40 13° SW 23:15:40 13° SW
Spot 4 3.9 23:13:21 20° SSE 23:16:48 86° ENE 23:21:42 10° NNW
Cosmos 2263 Rocket 2.1 23:11:21 10° SSW 23:16:55 82° ESE 23:22:33 10° NNE
deb Chang Zheng 4 3.5 23:16:31 10° NNE 23:20:54 77° ESE 23:24:10 18° S
ATLAS 5 CENTAUR R/B 4.0 23:17:32 10° W 23:21:56 31° NNW 23:26:46 10° NE
Cosmos 1356 4.4 23:19:11 11° SSW 23:22:28 46° WNW 23:25:53 10° N
COSMOS 2406 3.7 23:17:00 10° NNW 23:22:36 55° NE 23:26:56 17° SE
Cosmos 1707 Rocket 3.6 23:20:58 10° N 23:25:28 77° ENE 23:28:12 23° SSE
Cosmos 2285 Rocket 4.3 23:20:30 10° NNW 23:26:46 64° WSW 23:31:24 19° S
ALOS 2 3.9 23:25:41 15° ESE 23:28:31 30° ENE 23:32:21 10° N
Cosmos 2151 3.9 23:24:24 10° SSW 23:28:31 46° WNW 23:32:42 10° N
BREEZE-M DEB (TANK) 2.9 23:25:40 10° W 23:28:35 87° S 23:39:16 10° E
SL-24 R/B 4.5 23:26:03 23° S 23:28:35 80° WSW 23:32:51 10° NNW
DELTA 2 DEB (DPAF) 4.1 23:26:35 23° SSE 23:29:24 87° WSW 23:33:54 10° NNW
Cosmos 2082 Rocket 4.5 23:26:48 10° N 23:30:40 18° NE 23:34:32 10° E
Cosmos 2034 Rocket 4.1 23:25:35 10° N 23:31:58 70° ENE 23:36:19 21° SSE
Cosmos 1455 2.9 23:31:27 10° NNW 23:35:12 46° W 23:37:32 20° SSW
Cosmos 1891 Rocket 4.4 23:31:42 10° N 23:37:49 84° E 23:41:55 22° SSE
CZ-2C R/B 3.8 23:35:01 19° SE 23:39:00 52° ENE 23:44:27 10° N
Cosmos 1354 Rocket 4.1 23:36:46 10° SSW 23:41:56 78° WNW 23:47:13 10° NNE
Cosmos 1933 4.2 23:39:38 10° N 23:43:32 40° ENE 23:45:33 23° SE
Cosmos 1538 Rocket 4.4 23:39:01 10° NNW 23:44:20 58° ENE 23:47:56 21° SE
Cosmos 1666 Rocket 3.6 23:42:43 25° S 23:45:16 72° E 23:49:43 10° NNE
Cosmos 1869 3.4 23:43:10 10° NNW 23:47:06 69° W 23:49:06 27° S
Cosmos 1862 Rocket 4.2 23:45:18 10° N 23:49:31 45° ENE 23:51:48 24° SE
Cosmos 1844 Rocket 3.3 23:47:58 24° SSE 23:50:37 37° ESE 23:55:43 10° NE
CZ-4B R/B 4.2 23:51:33 10° ENE 23:52:39 11° ENE 23:53:45 10° NE
Cosmos 1933 Rocket 4.5 23:53:00 24° SE 23:54:48 35° E 23:58:46 10° NNE
